This is the latest recevied weather packets stored in our database for station/object KC7RJK-2. If no packets are shown the sender has not sent any weather packets the latest 10 day(s).
| Time | Temp. | Humidity | Pressure | Rain* | Wind** | Luminosity | Snow |
|---|---|---|---|---|---|---|---|
| 1777582208 | 22.22° C | 52% | 1016.7 hPa | 0 mm | - | - | - |
| 1777581610 | 21.67° C | 58% | 1016.8 hPa | 0 mm | - | - | - |
| 1777581010 | 21.11° C | 59% | 1017 hPa | 0 mm | - | - | - |
| 1777580410 | 21.11° C | 58% | 1017.2 hPa | 0 mm | - | - | - |
| 1777579810 | 21.11° C | 56% | 1017.2 hPa | 0 mm | - | - | - |
| 1777579210 | 20.56° C | 60% | 1017.5 hPa | 0 mm | - | - | - |
| 1777578609 | 20° C | 60% | 1017.6 hPa | 0 mm | - | - | - |
| 1777578009 | 20° C | 62% | 1017.8 hPa | 0 mm | - | - | - |
| 1777577410 | 19.44° C | 64% | 1017.7 hPa | 0 mm | - | - | - |
| 1777576808 | 19.44° C | 65% | 1017.9 hPa | 0 mm | - | - | - |
| 1777576208 | 18.89° C | 64% | 1018 hPa | 0 mm | - | - | - |
| 1777575610 | 18.89° C | 66% | 1018.1 hPa | 0 mm | - | - | - |
| 1777575011 | 18.33° C | 66% | 1018.2 hPa | 0 mm | - | - | - |
| 1777574410 | 18.33° C | 66% | 1018.3 hPa | 0 mm | - | - | - |
| 1777573812 | 17.78° C | 65% | 1018.4 hPa | 0 mm | - | - | - |
| 1777573211 | 17.22° C | 66% | 1018.6 hPa | 0 mm | - | - | - |
| 1777572609 | 17.78° C | 66% | 1018.8 hPa | 0 mm | - | - | - |
| 1777572013 | 16.67° C | 67% | 1018.8 hPa | 0 mm | - | - | - |
| 1777571411 | 16.67° C | 69% | 1018.8 hPa | 0 mm | - | - | - |
| 1777570811 | 16.11° C | 70% | 1018.9 hPa | 0 mm | - | - | - |
| 1777570209 | 15.56° C | 69% | 1019 hPa | 0 mm | - | - | - |
| 1777569609 | 15.56° C | 70% | 1019.1 hPa | 0 mm | - | - | - |
| 1777569010 | 15° C | 71% | 1019 hPa | 0 mm | - | - | - |
| 1777568412 | 14.44° C | 74% | 1019.1 hPa | 0 mm | - | - | - |
| 1777567808 | 13.89° C | 75% | 1019.2 hPa | 0 mm | - | - | - |
* Rain latest hour (hover to see other rain measurements)
** Current wind speed in m/s (hover to see current wind gust speed)